Location: Madrid
(40.4000°N, 3.6830°W)
Time: 06:47:56
(UTC+01:00)

ISS - Pass Details

Date: 22 November 2020
Orbit: 418 x 420 km, 51.6° (Epoch: 04 December)

Event Time Altitude Azimuth Distance (km) Brightness Sun altitude
Rises 19:38:54 0° 256° (WSW) 2,354 1.7 -20.0°
Reaches altitude 10° 19:41:08 10° 267° (W) 1,493 0.2 -20.5°
Maximum altitude 19:44:11 31° 333° (NNW) 751 -2.4 -21.0°
Enters shadow 19:44:24 31° 341° (NNW) 757 -2.4 -21.1°
